SKY388 RJKA-RJFK

Flight info

Callsign SKY388
Flight time N/A
Altitude 29000
Route RURIK B597 TGE Y14 KINKO
Aircraft B738/M-SDE2E3FGHIRWXY/LB1

Departure

Time 2026-04-30 11:49
Airport Amami Airport (RJKA)

Arrival

Time N/A
Airport Kagoshima Airport (RJFK)
Time Latitude Longitude Altitude Speed Heading
2026-04-30 11:40 28.43116 129.70902 27 ft 0 kts 296°
2026-04-30 11:41 28.43113 129.70908 26 ft 2 kts 295°
2026-04-30 11:42 28.43106 129.70925 30 ft 2 kts 295°
2026-04-30 11:42 28.43099 129.70943 27 ft 2 kts 294°
2026-04-30 11:42 28.43093 129.70959 24 ft 2 kts 292°
2026-04-30 11:42 28.43087 129.70977 25 ft 2 kts 291°
2026-04-30 11:43 28.43081 129.70994 22 ft 2 kts 288°
2026-04-30 11:43 28.43077 129.71012 22 ft 2 kts 283°
2026-04-30 11:43 28.43074 129.71031 22 ft 2 kts 271°
2026-04-30 11:43 28.43076 129.71049 22 ft 2 kts 242°
2026-04-30 11:44 28.43085 129.71061 22 ft 1 kts 212°
2026-04-30 11:44 28.43089 129.71064 22 ft 0 kts 210°
2026-04-30 11:45 28.43080 129.71058 22 ft 8 kts 208°
2026-04-30 11:45 28.42996 129.70999 22 ft 10 kts 259°
2026-04-30 11:46 28.43073 129.71038 22 ft 28 kts 43°
2026-04-30 11:46 28.43241 129.71145 24 ft 26 kts 26°
2026-04-30 11:46 28.43395 129.71231 24 ft 23 kts 26°
2026-04-30 11:46 28.43531 129.71306 26 ft 20 kts 26°
2026-04-30 11:47 28.43650 129.71372 24 ft 18 kts 26°
2026-04-30 11:47 28.43755 129.71429 26 ft 16 kts 26°
2026-04-30 11:47 28.43846 129.71479 22 ft 13 kts 25°
2026-04-30 11:47 28.43913 129.71535 26 ft 11 kts 64°
2026-04-30 11:48 28.43902 129.71612 23 ft 9 kts 114°
2026-04-30 11:48 28.43866 129.71676 25 ft 9 kts 148°
2026-04-30 11:48 28.43823 129.71673 26 ft 5 kts 200°
2026-04-30 11:48 28.43812 129.71667 25 ft 0 kts 204°
2026-04-30 11:49 28.43673 129.71589 28 ft 57 kts 207°
2026-04-30 11:49 28.43088 129.71268 25 ft 126 kts 206°
2026-04-30 11:49 28.42151 129.70739 316 ft 159 kts 208°
2026-04-30 11:49 28.41155 129.70337 1273 ft 161 kts 186°
2026-04-30 11:50 28.40011 129.70830 1796 ft 193 kts 133°
2026-04-30 11:50 28.39515 129.72245 2510 ft 209 kts 93°
2026-04-30 11:50 28.39991 129.73913 2979 ft 239 kts 51°
2026-04-30 11:50 28.41120 129.75233 4134 ft 235 kts 39°
2026-04-30 11:51 28.42414 129.76509 4825 ft 253 kts 40°
2026-04-30 11:51 28.43747 129.77923 5602 ft 271 kts 43°
2026-04-30 11:51 28.45086 129.79492 6351 ft 288 kts 46°
2026-04-30 11:51 28.46493 129.81231 7065 ft 307 kts 47°
2026-04-30 11:52 28.48091 129.82914 7867 ft 317 kts 31°
2026-04-30 11:52 28.50071 129.84043 8865 ft 320 kts 20°
2026-04-30 11:52 28.52118 129.85028 9757 ft 326 kts 19°
2026-04-30 11:52 28.54260 129.85995 10512 ft 340 kts 17°
2026-04-30 11:53 28.56520 129.87004 11120 ft 355 kts 18°
2026-04-30 11:53 28.58849 129.88072 11962 ft 362 kts 18°
2026-04-30 11:53 28.61169 129.89161 12823 ft 367 kts 18°
2026-04-30 11:53 28.63549 129.90283 13684 ft 371 kts 18°
2026-04-30 11:54 28.65958 129.91414 14550 ft 375 kts 18°
2026-04-30 11:54 28.68399 129.92551 15364 ft 380 kts 18°
2026-04-30 11:54 28.70865 129.93697 16181 ft 384 kts 18°
2026-04-30 11:54 28.73365 129.94861 16976 ft 389 kts 18°
2026-04-30 11:55 28.75853 129.96024 17736 ft 393 kts 18°
2026-04-30 11:55 28.78401 129.97217 18481 ft 397 kts 18°
2026-04-30 11:55 28.80978 129.98423 19206 ft 402 kts 18°
2026-04-30 11:55 28.83594 129.99645 19887 ft 407 kts 18°
2026-04-30 11:56 28.86205 130.00866 20552 ft 412 kts 18°
2026-04-30 11:56 28.88875 130.02116 21249 ft 416 kts 18°
2026-04-30 11:56 28.91579 130.03384 21882 ft 421 kts 18°
2026-04-30 11:56 28.94309 130.04665 22487 ft 426 kts 18°
2026-04-30 11:57 28.97070 130.05961 23006 ft 433 kts 18°
2026-04-30 11:57 28.99896 130.07285 23455 ft 440 kts 18°
2026-04-30 11:57 29.02741 130.08622 24090 ft 442 kts 18°
2026-04-30 11:57 29.05559 130.09949 24742 ft 442 kts 18°
2026-04-30 11:58 29.08407 130.11290 25397 ft 442 kts 18°
2026-04-30 11:58 29.11251 130.12629 26080 ft 442 kts 18°
2026-04-30 11:58 29.14101 130.13970 26770 ft 441 kts 18°
2026-04-30 11:58 29.16946 130.15309 27421 ft 441 kts 18°
2026-04-30 11:59 29.19780 130.16645 28140 ft 438 kts 18°
2026-04-30 11:59 29.22549 130.17954 28827 ft 436 kts 17°
2026-04-30 11:59 29.28178 130.20611 28911 ft 433 kts 17°
2026-04-30 12:00 29.33725 130.23473 28908 ft 438 kts 22°
2026-04-30 12:00 29.39055 130.26820 28911 ft 439 kts 24°
2026-04-30 12:01 29.44491 130.30050 28904 ft 437 kts 21°
2026-04-30 12:01 29.49915 130.33170 28902 ft 438 kts 22°
2026-04-30 12:02 29.55350 130.36406 28902 ft 440 kts 22°
2026-04-30 12:02 29.59868 130.39094 28898 ft 440 kts 22°
2026-04-30 12:03 29.68947 130.44454 28891 ft 439 kts 22°
2026-04-30 12:04 29.73472 130.47142 28892 ft 440 kts 22°
2026-04-30 12:04 29.78917 130.50375 28889 ft 440 kts 22°
2026-04-30 12:05 29.84326 130.53589 28884 ft 440 kts 22°
2026-04-30 12:05 29.89765 130.56828 28881 ft 439 kts 22°
2026-04-30 12:06 29.95248 130.60092 28879 ft 444 kts 22°
2026-04-30 12:06 30.00714 130.63359 28881 ft 443 kts 22°
2026-04-30 12:07 30.06198 130.66631 28873 ft 451 kts 22°
2026-04-30 12:07 30.11735 130.69947 28874 ft 448 kts 22°
2026-04-30 12:08 30.17267 130.73268 28874 ft 447 kts 22°
2026-04-30 12:08 30.22796 130.76579 28873 ft 447 kts 22°
2026-04-30 12:09 30.28314 130.79893 28420 ft 453 kts 22°
2026-04-30 12:09 30.31143 130.81591 27714 ft 460 kts 22°
2026-04-30 12:09 30.33980 130.83299 27131 ft 464 kts 23°
2026-04-30 12:09 30.36854 130.85033 26606 ft 465 kts 23°
2026-04-30 12:10 30.39732 130.86772 26053 ft 463 kts 23°
2026-04-30 12:10 30.42529 130.88462 25527 ft 456 kts 23°
2026-04-30 12:10 30.45321 130.90149 24995 ft 450 kts 23°
2026-04-30 12:10 30.48083 130.91817 24453 ft 444 kts 23°
2026-04-30 12:11 30.50805 130.93460 23921 ft 438 kts 24°
2026-04-30 12:11 30.53494 130.95085 23399 ft 433 kts 24°
2026-04-30 12:11 30.56157 130.96682 22865 ft 427 kts 20°
2026-04-30 12:11 30.58927 130.97774 22376 ft 412 kts
2026-04-30 12:12 30.61719 130.98080 21879 ft 395 kts 350°
2026-04-30 12:12 30.64372 130.97629 21387 ft 376 kts 335°
2026-04-30 12:12 30.66818 130.96769 20893 ft 369 kts 333°
2026-04-30 12:12 30.69249 130.95856 20404 ft 363 kts 333°
2026-04-30 12:13 30.71642 130.94942 19924 ft 358 kts 333°
2026-04-30 12:13 30.74000 130.94055 19449 ft 353 kts 333°
2026-04-30 12:13 30.76298 130.93207 18991 ft 347 kts 333°
2026-04-30 12:13 30.78596 130.92366 18482 ft 343 kts 333°
2026-04-30 12:14 30.80861 130.91532 17976 ft 338 kts 333°
2026-04-30 12:14 30.83096 130.90703 17474 ft 334 kts 333°
2026-04-30 12:14 30.85273 130.89894 16985 ft 330 kts 333°
2026-04-30 12:14 30.87447 130.89086 16488 ft 325 kts 333°
2026-04-30 12:15 30.89598 130.88288 15994 ft 321 kts 333°
2026-04-30 12:15 30.91734 130.87494 15499 ft 323 kts 333°
2026-04-30 12:15 30.93889 130.86690 14998 ft 325 kts 333°
2026-04-30 12:15 30.96028 130.85894 14485 ft 327 kts 334°
2026-04-30 12:16 30.98209 130.85085 13974 ft 328 kts 334°
2026-04-30 12:16 31.00397 130.84275 13444 ft 330 kts 334°
2026-04-30 12:16 31.02652 130.83865 13404 ft 328 kts 354°
2026-04-30 12:16 31.04889 130.84015 13406 ft 315 kts 357°
2026-04-30 12:17 31.09249 130.84559 12880 ft 323 kts
2026-04-30 12:17 31.11477 130.84885 12570 ft 320 kts
2026-04-30 12:17 31.13687 130.85198 12209 ft 318 kts 360°
2026-04-30 12:18 31.15881 130.85490 11860 ft 315 kts 359°
2026-04-30 12:18 31.18061 130.85773 11506 ft 313 kts
2026-04-30 12:18 31.20222 130.86053 11145 ft 311 kts
2026-04-30 12:18 31.22354 130.86332 10796 ft 310 kts
2026-04-30 12:19 31.24513 130.86617 10355 ft 316 kts
2026-04-30 12:19 31.26717 130.86909 9979 ft 314 kts
2026-04-30 12:19 31.28845 130.87197 9836 ft 311 kts
2026-04-30 12:19 31.31006 130.87483 9436 ft 312 kts
2026-04-30 12:20 31.33153 130.87767 9128 ft 308 kts
2026-04-30 12:20 31.35280 130.88050 8803 ft 305 kts
2026-04-30 12:20 31.37386 130.88332 8482 ft 303 kts
2026-04-30 12:20 31.39476 130.88609 8143 ft 301 kts
2026-04-30 12:21 31.41550 130.88883 7804 ft 298 kts
2026-04-30 12:21 31.43582 130.89154 7476 ft 295 kts
2026-04-30 12:21 31.45620 130.89428 7154 ft 293 kts
2026-04-30 12:21 31.47645 130.89698 6849 ft 290 kts
2026-04-30 12:22 31.49628 130.89961 6525 ft 288 kts
2026-04-30 12:22 31.51616 130.90183 6200 ft 285 kts 357°
2026-04-30 12:22 31.53541 130.89837 5918 ft 276 kts 338°
2026-04-30 12:22 31.55246 130.88876 5636 ft 270 kts 327°
2026-04-30 12:23 31.56881 130.87794 5291 ft 269 kts 326°
2026-04-30 12:23 31.57948 130.87070 5090 ft 266 kts 327°